Location: Unspecified
(29.7951°N, 0.0000°E)
Time: 02:57:53
(UTC+00:00)

Vanguard 1 Rocket - Visible Passes

Search period start: 04 April 2026 00:00
Search period end: 14 April 2026 00:00
Orbit: 654 x 4213 km, 34.3° (Epoch: 28 March)

Date Brightness Start Highest point End Pass type
(mag) Time Alt. Az. Time Alt. Az. Time Alt. Az.
4 Apr 9.6 01:20:32 58° ENE 01:20:32 58° ENE 01:28:11 10° ENE visible
4 Apr 8.8 03:37:39 31° W 03:45:15 69° N 03:52:58 10° E visible
4 Apr 11.1 21:08:37 10° SSW 21:21:00 28° S 21:21:00 28° S visible
4 Apr 10.4 23:36:49 10° SW 00:11:31 28° ENE 00:15:40 10° ENE visible
5 Apr 9.2 02:28:37 64° WNW 02:31:22 76° NNW 02:41:00 10° ENE visible
5 Apr 8.4 04:46:50 10° WNW 04:59:15 76° N 05:05:35 10° E visible
5 Apr 11.1 19:57:08 10° S 20:13:38 23° SE 20:13:38 23° SE visible
5 Apr 11.1 22:21:04 10° SW 23:02:26 10° ENE 23:02:29 10° ENE visible
6 Apr 9.5 01:19:32 69° ENE 01:19:32 69° ENE 01:28:49 10° ENE visible
6 Apr 8.9 03:36:37 26° WNW 03:45:54 71° N 03:53:46 10° E visible
6 Apr 11.3 18:51:25 10° SSE 18:58:51 12° SE 19:06:13 10° ESE visible
6 Apr 10.8 21:06:52 10° SSW 21:23:46 38° SSE 21:23:46 38° SSE visible
6 Apr 10.3 23:36:15 10° WSW 00:10:22 37° ENE 00:16:16 10° ENE visible
7 Apr 9.3 02:27:26 54° WNW 02:31:53 74° N 02:41:44 10° ENE visible
7 Apr 8.4 04:47:02 10° WNW 04:59:52 86° NNE 05:06:21 10° ESE visible
7 Apr 10.9 19:54:33 10° S 20:14:18 29° SE 20:16:51 29° SE visible
7 Apr 10.8 22:20:07 10° SW 23:01:06 17° ENE 23:03:07 10° ENE visible
8 Apr 9.5 01:18:10 79° NNE 01:18:10 79° NNE 01:29:28 10° ENE visible
8 Apr 8.9 03:35:14 21° WNW 03:46:33 74° N 03:54:34 10° E visible
8 Apr 11.2 18:45:21 10° SSE 18:58:46 17° SE 19:10:13 12° ESE visible
8 Apr 10.5 21:05:31 10° SSW 21:51:43 - ENE 21:27:35 49° SSE visible
8 Apr 10.1 23:35:55 10° WSW 00:08:46 48° ENE 00:16:51 10° ENE visible
9 Apr 9.3 02:25:50 45° WNW 02:32:26 73° N 02:42:30 10° E visible
9 Apr 8.4 04:47:11 10° WNW 05:00:24 83° SSW 05:07:02 10° ESE visible
9 Apr 10.7 19:52:37 10° SSW 20:13:55 36° SE 20:21:19 31° ESE visible
9 Apr 10.5 22:19:27 10° SW 22:59:12 26° ENE 23:03:40 10° ENE visible
10 Apr 9.6 00:53:42 10° W 01:17:32 78° N 01:30:08 10° ENE visible
10 Apr 8.9 03:33:15 16° WNW 03:47:09 80° NNE 03:55:21 10° E visible
10 Apr 11.1 18:42:00 10° S 18:58:26 23° SE 19:15:19 10° E visible
10 Apr 10.3 21:04:30 10° SW 21:29:28 58° SE 21:49:43 10° ENE visible
10 Apr 9.9 23:35:46 10° WSW 00:06:19 65° ENE 00:17:25 10° ENE visible
11 Apr 9.4 02:23:17 35° WNW 02:33:00 75° N 02:43:17 10° E visible
11 Apr 8.5 04:47:19 10° WNW 05:00:48 70° SSW 05:07:37 10° SE visible
11 Apr 10.7 19:51:11 10° SSW 20:13:25 43° SE 20:28:04 24° E visible
11 Apr 10.1 22:19:02 10° WSW 22:45:37 80° SSE 23:04:10 10° ENE visible
12 Apr 9.7 00:53:51 10° W 01:17:58 76° N 01:30:50 10° E visible
12 Apr 8.9 03:30:20 10° WNW 03:47:41 88° NNE 03:56:04 10° ESE visible
12 Apr 11.0 18:39:44 10° S 18:57:55 29° SE 19:17:16 10° E visible
12 Apr 10.3 21:03:48 10° SW 21:29:07 66° SSE 21:50:12 10° ENE visible
12 Apr 10.0 23:35:47 10° WSW 00:02:05 83° NNW 00:17:59 10° ENE visible
13 Apr 9.4 02:12:27 10° W 02:33:33 78° N 02:44:02 10° E visible
13 Apr 8.6 04:47:27 10° WNW 05:01:04 58° SW 05:08:03 10° SE visible
13 Apr 10.6 19:50:07 10° SSW 20:12:52 51° SE 20:35:12 10° ENE visible
13 Apr 10.2 22:18:50 10° WSW 22:45:34 87° SSE 23:04:38 10° ENE visible
